Location: Kershaw
(34.5481°N, 80.5823°W)
Time: 16:37:43
(UTC+00:00)

Courier 1B Rocket - Pass Details

Date: 02 October 2022
Orbit: 920 x 1202 km, 28.2° (Epoch: 08 December)

Event Time Altitude Azimuth Distance (km) Brightness Sun altitude
Rises 00:47:10 0° 241° (WSW) 3,727 8.8 -21.5°
Reaches altitude 10° 00:50:05 10° 234° (SW) 2,735 7.9 -22.1°
Maximum altitude 00:56:06 39° 168° (SSE) 1,391 5.6 -23.3°
Enters shadow 00:56:55 37° 150° (SSE) 1,422 5.5 -23.5°
Drops below altitude 10° 01:01:52 10° 101° (E) 2,619 - -24.5°
Sets 01:04:35 0° 94° (E) 3,551 - -25.0°
